Location: Glencliff
(36.1226°N, 86.7183°W)
Time: 12:36:04
(UTC+00:00)

Cosmos 1825 - Pass Details

Date: 25 August 2019
Orbit: 503 x 510 km, 82.5° (Epoch: 23 October)

Event Time Altitude Azimuth Distance (km) Brightness Sun altitude
Rises 10:43:01 0° 327° (NNW) 2,624 5.6 -6.6°
Reaches altitude 10° 10:46:39 10° 290° (WNW) 1,731 4.4 -5.9°
Maximum altitude 10:47:41 11° 274° (W) 1,669 4.2 -5.7°
Drops below altitude 10° 10:48:44 10° 258° (WSW) 1,727 4.2 -5.5°
Enters shadow 10:50:53 - 232° (SW) 2,160 4.7 -5.1°
